Content
SEND FEEDBACK

Daily
Averages
Monthly
Summary
United States of America

HAMPTON, IOWA


Home > North America > United States > Iowa
Elevation: 1086 feet     Latitude: 42 45N     Longitude: 093 11W

WEATHER
 
SELECT A DAY
Number of Records: 158,901;   Date Range: 6/29/07 - 7/27/14
 
SHARE

PRINT THIS DATA

[ ← Previous Day ]
WEATHER ALMANAC - JANUARY 31, 2013
[ Next Day → ]
[ °C ]   °F
Weather ElementAverageHighLow
Temperature3.6 °F10.2 °F (12:35 am)-2.9 °F (11:55 pm)
Dewpoint-4.3 °F5 °F (1:55 am)-11.2 °F (11:55 pm)
Humidity69.9 %80 % (1:55 am)63 % (6:55 pm)
Barometer30.06 in30.31 in (11:55 pm)29.81 in (12:35 am)
Wind Speed22.3 mph31.1 mph (11:55 am)
Wind Gust38 mph (1:35 pm)
Weather ElementAverage
Visibility8.6 mi
Wind DirectionWNW (296.3 °)

Weather ElementTotal
Precipitation---
Heating Degree Days61.4 (Base 65)
Averaged from 67 records on January 31, 2013
WEATHER CONDITIONS BREAKOUT
WIND DIRECTION BREAKOUT
WEATHER BY HOUR - JANUARY 31, 2013
[ °C ]   °F
Local TimeTemperatureDewpointHumidityBarometerVisibilityWind DirectionWind SpeedGust SpeedPrecipitationEventsConditions
12:35 AM10.2 °F3.7 °F75 %29.81 in10.0 miWNW (290°)17.3 mphClear
12:55 AM9.7 °F3.6 °F76 %29.82 in10.0 miWNW (290°)15.0 mphClear
1:35 AM9.5 °F3.7 °F77 %29.82 in10.0 miWNW (290°)16.1 mphScattered Clouds
1:55 AM10.0 °F5.0 °F80 %29.83 in7.0 miWNW (290°)16.1 mphSnowLight Snow
2:15 AM9.5 °F3.4 °F76 %29.84 in10.0 miWest (280°)18.4 mphOvercast
2:35 AM9.1 °F2.5 °F74 %29.84 in10.0 miWest (280°)20.7 mph25.3 mphOvercast
2:55 AM8.1 °F2.1 °F77 %29.84 in10.0 miWest (280°)18.4 mph25.3 mphMostly Cloudy
3:15 AM7.7 °F1.9 °F77 %29.84 in10.0 miWNW (290°)17.3 mphScattered Clouds
3:35 AM7.5 °F1.4 °F76 %29.84 in10.0 miWNW (290°)19.6 mphOvercast
3:55 AM7.0 °F1.0 °F77 %29.85 in10.0 miWest (280°)20.7 mphOvercast
4:15 AM6.6 °F0.9 °F77 %29.86 in10.0 miWNW (290°)19.6 mphOvercast
4:35 AM6.3 °F0.1 °F76 %29.85 in10.0 miWest (280°)19.6 mphOvercast
4:55 AM5.5 °F-0.8 °F75 %29.86 in10.0 miWNW (290°)20.7 mphOvercast
5:15 AM4.6 °F-1.5 °F76 %29.87 in10.0 miWNW (290°)20.7 mphMostly Cloudy
5:35 AM4.1 °F-2.2 °F75 %29.88 in10.0 miWNW (290°)21.9 mphOvercast
5:55 AM4.5 °F-1.7 °F76 %29.89 in7.0 miWNW (300°)20.7 mph24.2 mphOvercast
6:15 AM3.6 °F-3.3 °F73 %29.90 in5.0 miWNW (290°)24.2 mph31.1 mphHaze
6:55 AM2.7 °F-4.2 °F73 %29.91 in10.0 miWNW (290°)18.4 mphOvercast
7:15 AM1.9 °F-4.7 °F74 %29.92 in10.0 miWNW (290°)20.7 mphScattered Clouds
7:35 AM1.2 °F-5.6 °F73 %29.93 in10.0 miWNW (290°)21.9 mphScattered Clouds
8:15 AM1.4 °F-5.4 °F73 %29.95 in10.0 miWNW (290°)17.3 mphScattered Clouds
8:35 AM1.9 °F-4.9 °F73 %29.96 in10.0 miWNW (300°)21.9 mphScattered Clouds
8:55 AM2.1 °F-5.8 °F69 %29.97 in10.0 miWNW (300°)20.7 mph27.6 mphMostly Cloudy
9:15 AM1.6 °F-6.3 °F69 %29.99 in10.0 miWNW (300°)25.3 mph29.9 mphScattered Clouds
9:35 AM2.1 °F-6.0 °F69 %30.00 in10.0 miWNW (300°)23.0 mph28.8 mphClear
9:55 AM1.9 °F-6.2 °F69 %30.01 in10.0 miWNW (290°)23.0 mph28.8 mphMostly Cloudy
10:15 AM1.9 °F-6.3 °F68 %30.02 in10.0 miNW (310°)24.2 mph29.9 mphOvercast
10:35 AM2.8 °F-5.6 °F68 %30.04 in10.0 miWNW (300°)23.0 mphOvercast
10:55 AM2.8 °F-5.3 °F69 %30.04 in10.0 miWNW (300°)21.9 mphOvercast
11:15 AM3.6 °F-5.1 °F67 %30.05 in10.0 miWNW (300°)23.0 mph31.1 mphOvercast
11:35 AM3.9 °F-5.1 °F66 %30.06 in5.0 miWNW (300°)26.5 mphHaze
11:55 AM4.8 °F-4.7 °F65 %30.06 in10.0 miWNW (300°)31.1 mphMostly Cloudy
12:15 PM5.2 °F-3.5 °F68 %30.06 in4.0 miWNW (300°)29.9 mph36.8 mphHaze
12:35 PM5.4 °F-4.2 °F65 %30.06 in5.0 miWNW (300°)27.6 mph36.8 mphHaze
12:55 PM5.5 °F-3.3 °F67 %30.07 in7.0 miNW (310°)31.1 mphOvercast
1:15 PM5.5 °F-3.8 °F65 %30.08 in4.0 miNW (310°)27.6 mph33.4 mphHaze
1:35 PM5.0 °F-3.3 °F69 %30.09 in2.5 miWNW (300°)28.8 mph38.0 mphHaze
1:55 PM6.1 °F-2.9 °F67 %30.09 in3.0 miWNW (300°)26.5 mph34.5 mphHaze
2:15 PM5.9 °F-2.0 °F70 %30.09 in3.0 miNW (310°)29.9 mph38.0 mphHaze
2:35 PM4.6 °F-4.2 °F67 %30.10 in7.0 miNW (310°)25.3 mph31.1 mphOvercast
3:15 PM4.3 °F-3.8 °F69 %30.12 in3.0 miWNW (300°)27.6 mph33.4 mphHaze
3:35 PM4.1 °F-4.2 °F69 %30.13 in3.0 miWNW (300°)28.8 mph34.5 mphHaze
3:55 PM4.3 °F-3.5 °F70 %30.14 in5.0 miWNW (300°)27.6 mph31.1 mphHaze
4:15 PM4.1 °F-3.6 °F70 %30.15 in5.0 miWNW (300°)25.3 mph29.9 mphHaze
4:35 PM3.7 °F-4.5 °F69 %30.16 in4.0 miNW (310°)24.2 mphHaze
4:55 PM3.7 °F-5.6 °F65 %30.16 in7.0 miWNW (300°)26.5 mphMostly Cloudy
5:15 PM3.6 °F-4.9 °F68 %30.17 in10.0 miWNW (300°)21.9 mph28.8 mphMostly Cloudy
5:35 PM3.2 °F-6.2 °F65 %30.17 in10.0 miNW (310°)24.2 mph33.4 mphMostly Cloudy
5:55 PM3.0 °F-6.3 °F65 %30.18 in10.0 miWNW (300°)23.0 mph33.4 mphScattered Clouds
6:15 PM2.7 °F-6.7 °F65 %30.19 in10.0 miWNW (300°)24.2 mph31.1 mphScattered Clouds
6:35 PM2.3 °F-7.1 °F65 %30.20 in10.0 miWNW (300°)24.2 mph31.1 mphClear
6:55 PM2.3 °F-7.6 °F63 %30.21 in10.0 miWNW (300°)26.5 mph31.1 mphClear
7:15 PM2.1 °F-7.6 °F64 %30.22 in10.0 miWNW (300°)24.2 mph29.9 mphClear
7:35 PM1.8 °F-7.8 °F64 %30.22 in10.0 miWNW (300°)21.9 mph27.6 mphClear
7:55 PM1.4 °F-8.0 °F65 %30.23 in10.0 miWNW (300°)20.7 mph29.9 mphClear
8:15 PM1.0 °F-7.6 °F67 %30.24 in10.0 miWNW (300°)15.0 mphClear
8:35 PM0.9 °F-7.8 °F67 %30.25 in10.0 miWNW (300°)20.7 mph25.3 mphClear
8:55 PM0.5 °F-8.0 °F68 %30.26 in10.0 miWNW (290°)21.9 mph27.6 mphClear
9:15 PM0.3 °F-8.5 °F66 %30.26 in10.0 miWNW (300°)19.6 mph27.6 mphClear
9:35 PM0.0 °F-8.7 °F67 %30.27 in10.0 miWNW (290°)18.4 mph27.6 mphClear
9:55 PM-0.6 °F-8.5 °F69 %30.28 in10.0 miWNW (290°)16.1 mphClear
10:15 PM-0.9 °F-9.2 °F68 %30.28 in10.0 miWNW (290°)18.4 mph25.3 mphClear
10:35 PM-1.3 °F-9.6 °F68 %30.28 in10.0 miWNW (290°)19.6 mphClear
10:55 PM-1.7 °F-9.8 °F68 %30.29 in10.0 miWNW (300°)18.4 mphClear
11:15 PM-1.8 °F-10.3 °F67 %30.30 in10.0 miWNW (300°)18.4 mphClear
11:35 PM-2.4 °F-11.0 °F67 %30.30 in10.0 miWNW (290°)21.9 mphClear
11:55 PM-2.9 °F-11.2 °F68 %30.31 in10.0 miWNW (300°)18.4 mphClear
Hourly data recorded from KIFA, located miles away from Hampton, Iowa







STORIES FROM OUR PARTNERS